TimeCEST,TemperatureF,Dew PointF,Humidity,Sea Level PressureIn,VisibilityMPH,Wind Direction,Wind SpeedMPH,Gust SpeedMPH,PrecipitationIn,Events,Conditions,WindDirDegrees,DateUTC
12:55 AM,66.2,64.4,94,30.09,-9999.0,West,9.2,-,N/A,,Clear,280,2012-10-05 22:55:00
1:55 AM,66.2,64.4,94,30.09,-9999.0,West,8.1,-,N/A,,Clear,270,2012-10-05 23:55:00
2:00 AM,66,65,94,30.11,12,West,8.1,,,,,270,2012-10-06 00:00:00
2:55 AM,66.2,64.4,94,30.12,-9999.0,WNW,5.8,-,N/A,,Clear,290,2012-10-06 00:55:00
3:55 AM,64.4,64.4,100,30.09,-9999.0,West,6.9,-,N/A,,Clear,280,2012-10-06 01:55:00
4:55 AM,64.4,64.4,100,30.09,-9999.0,WNW,10.4,-,N/A,,Clear,290,2012-10-06 02:55:00
5:55 AM,64.4,64.4,100,30.09,-9999.0,WNW,10.4,-,N/A,,Clear,300,2012-10-06 03:55:00
6:55 AM,64.4,60.8,88,30.09,-9999.0,West,9.2,-,N/A,,Clear,280,2012-10-06 04:55:00
7:55 AM,66.2,62.6,88,30.09,-9999.0,West,8.1,-,N/A,,Clear,280,2012-10-06 05:55:00
8:00 AM,65,62,86,30.11,12,West,8.1,,,,,280,2012-10-06 06:00:00
8:55 AM,66.2,62.6,88,30.09,6.2,WNW,8.1,-,N/A,,Partly Cloudy,290,2012-10-06 06:55:00
9:55 AM,66.2,60.8,83,30.09,-9999.0,WNW,6.9,-,N/A,,Clear,290,2012-10-06 07:55:00
10:55 AM,71.6,66.2,83,30.12,-9999.0,South,8.1,-,N/A,,Clear,190,2012-10-06 08:55:00
12:55 PM,78.8,68.0,69,30.12,-9999.0,South,3.5,-,N/A,,Clear,180,2012-10-06 10:55:00
1:55 PM,78.8,68.0,69,30.12,6.2,South,4.6,-,N/A,,Partly Cloudy,180,2012-10-06 11:55:00
2:00 PM,79,67,59,30.12,12,South,4.6,,,,Scattered Clouds,180,2012-10-06 12:00:00
2:55 PM,78.8,68.0,69,30.12,6.2,South,4.6,-,N/A,,Partly Cloudy,190,2012-10-06 12:55:00
3:55 PM,77.0,69.8,78,30.09,6.2,South,9.2,-,N/A,,Partly Cloudy,180,2012-10-06 13:55:00
4:55 PM,75.2,68.0,78,30.09,6.2,South,10.4,-,N/A,,Partly Cloudy,190,2012-10-06 14:55:00
5:55 PM,75.2,69.8,83,30.09,6.2,South,9.2,-,N/A,,Partly Cloudy,190,2012-10-06 15:55:00
6:55 PM,71.6,71.6,100,30.09,-9999.0,SSW,12.7,-,N/A,,Clear,200,2012-10-06 16:55:00
7:55 PM,71.6,69.8,94,30.09,-9999.0,SSW,12.7,-,N/A,,Clear,210,2012-10-06 17:55:00
8:00 PM,71,70,97,30.09,12,SSW,12.7,,,,,210,2012-10-06 18:00:00
9:55 PM,69.8,69.8,100,30.09,-9999.0,SW,8.1,-,N/A,,Clear,220,2012-10-06 19:55:00
10:55 PM,69.8,68.0,94,30.09,-9999.0,SSW,4.6,-,N/A,,Clear,210,2012-10-06 20:55:00
11:55 PM,68.0,66.2,94,30.09,-9999.0,East,3.5,-,N/A,,Clear,100,2012-10-06 21:55:00